STARLINK-34055, 63819

Orbit data source: Space-Track

STARLINK-34055, 63819 is a payload satellite owned by SpaceX/Seattle (US) in LEO that was launched on Sun, 04 May 2025 UTC via an FALCON 9 launch vehicle from the Air Force Eastern Test Range (AFETR). Payload-class satellites include a variety of spacecraft equipped with specific instruments for various scientific and technological missions. These include communications satellites like Starlink; space stations such as the ISS; scientific satellites like the Hubble; Earth observation satellites from companies like Planet Labs, Umbra, and HawkEye 360; GPS; miniature CubeSats for education and research; and military/defense satellites.

Loading next visibility...
Identifier
63819, 2025-092R
Orbit
LEO
Country
Flag of USUS
Related business
Manufacturer
SpaceX/Seattle
Mission
Operational Commercial Communications
Bus & Motor
STARLINK V2MO, Unknown motor
Mass
575 kg wet, ~530 kg dry
Launch date (UTC)
2025-05-04 (9 months ago)
Launch vehicle
FALCON 9
Launch site
Air Force Eastern Test Range (AFETR)
Object type
Payload
Rocket body
Debris
Shape & HBR
Box + 2 Pan, 17.7 m
Radar Cross Section
36.964 m², Large (>1 m²)

Expand to show TLE details & history
Last TLE update: 14 hours ago

TLE from 14 hours ago
0 STARLINK-34055
1 63819U 25092R   26034.63719803  .00043304  00000-0  15727-2 0  9995
2 63819  43.0025   5.1053 0000825 283.0465  77.0295 15.27605323 43405
Epoch: 2026-02-03T15:17Z
TLE epoch observation values (Epoch: 2026-02-03T15:17:33.909Z)
Latitude
-0°
Longitude
1.89874°
Altitude
482.622 km
Speed
7.626 km/s
True Right ascension
00h 20m 25s
True Declination
0° 00' 00"
Sunlit
Object was in daylight at epoch
Visualization orbit readout
Latitude
Unknown
Longitude
Unknown
Altitude
Unknown
Speed
Unknown
Apparent Right ascension
Unknown
Apparent Declination
Unknown
Sunlit
N/A
Visualization observer readout
Local Sidereal Time
07:11:09
Azimuth
Unknown
Elevation
Unknown
Doppler factor
Unknown
Orbital elements
Apogee altitude
485.484 km
Perigee altitude
484.352 km
Semi-major axis
6,863.055 km
Eccentricity
0.00008
Inclination
43.0025°
RAAN
5.1053°
Arg. of periapsis
283.0465°
True anomaly
77.03871°
Mean anomaly
77.0295°
Eccentric anomaly
77.03411°
Mean motion
3.81739 °/min
Orbital period
94.31 mins
BSTAR
0.0015727
Loading maneuver chart data...
Computing Atmospheric mass density...
Loading historical data...
Loading historical data...
Loading historical data...
Loading historical data...
Loading historical data...
Loading historical data...
Loading historical data...

Documentation

Showing up to 5 results
|